FW7093 Weather Reports


Display with metric or nautical units.
time (UTC)temp
F
wind
direction
speed
MPH
gust
MPH
rain 1hr
in
rain 24hr
in
rain mn
in
humidity
%
barometer
mb
20260510174556 80 0 2.0 6.0 0.00 0.00 0.00 42 1012.5
20260510174045 80 0 2.0 11.0 0.00 0.00 0.00 45 1012.4
20260510173546 79 253 3.0 11.0 0.00 0.00 0.00 54 1012.3
20260510173052 79 257 3.0 7.0 0.00 0.00 0.00 49 1012.3
20260510172547 78 0 1.0 9.0 0.00 0.00 0.00 51 1012.4
20260510172047 79 220 4.0 9.0 0.00 0.00 0.00 48 1012.4
20260510171554 78 284 3.0 8.0 0.00 0.00 0.00 54 1012.4
20260510171047 79 236 3.0 8.0 0.00 0.00 0.00 48 1012.4
20260510170547 78 220 2.0 9.0 0.00 0.00 0.00 49 1012.5
20260510170052 78 244 3.0 9.0 0.00 0.00 0.00 51 1012.5
20260510165546 77 215 1.0 7.0 0.00 0.00 0.00 50 1012.6
20260510165049 77 232 2.0 9.0 0.00 0.00 0.00 48 1012.5
20260510164555 77 192 2.0 9.0 0.00 0.00 0.00 51 1012.8
20260510164044 77 0 1.0 7.0 0.00 0.00 0.00 59 1012.6
20260510163546 76 0 1.0 9.0 0.00 0.00 0.00 52 1012.5
20260510163053 77 355 0.0 9.0 0.00 0.00 0.00 57 1012.5
20260510162552 76 224 2.0 8.0 0.00 0.00 0.00 51 1012.4
20260510162045 76 155 3.0 8.0 0.00 0.00 0.00 50 1012.5
20260510161551 77 263 3.0 8.0 0.00 0.00 0.00 54 1012.4
20260510161047 76 149 2.0 8.0 0.00 0.00 0.00 54 1012.7
20260510160543 75 275 2.0 8.0 0.00 0.00 0.00 52 1012.7
20260510160132 75 326 1.0 8.0 0.00 0.00 0.00 55 1012.7
20260510155546 75 330 2.0 10.0 0.00 0.00 0.00 59 1012.7
20260510155047 75 249 2.0 10.0 0.00 0.00 0.00 58 1012.7
20260510154605 75 332 3.0 10.0 0.00 0.00 0.00 61 1012.8
20260510154048 75 249 4.0 12.0 0.00 0.00 0.00 64 1012.7
20260510153547 75 253 4.0 12.0 0.00 0.00 0.00 59 1012.9
20260510153051 75 319 6.0 12.0 0.00 0.00 0.00 56 1012.9
20260510152546 74 301 4.0 12.0 0.00 0.00 0.00 55 1012.9
20260510152045 74 322 4.0 12.0 0.00 0.00 0.00 56 1012.9
20260510151558 75 305 6.0 12.0 0.00 0.00 0.00 61 1012.8
20260510151045 74 291 5.0 11.0 0.00 0.00 0.00 59 1012.8
20260510150546 73 306 2.0 10.0 0.00 0.00 0.00 60 1012.7
20260510150055 73 263 2.0 10.0 0.00 0.00 0.00 64 1012.6
20260510145545 72 317 1.0 7.0 0.00 0.00 0.00 60 1012.6
20260510145045 72 238 2.0 7.0 0.00 0.00 0.00 62 1012.6
20260510144551 72 188 1.0 5.0 0.00 0.00 0.00 63 1012.6
20260510144044 71 215 2.0 5.0 0.00 0.00 0.00 67 1012.7
20260510143544 71 0 0.0 4.0 0.00 0.00 0.00 69 1012.8
20260510143056 70 0 0.0 5.0 0.00 0.00 0.00 68 1012.8
20260510142547 70 309 1.0 5.0 0.00 0.00 0.00 71 1012.8
20260510142045 69 332 0.0 4.0 0.00 0.00 0.00 71 1012.9
20260510141551 68 174 0.0 4.0 0.00 0.00 0.00 73 1012.8
20260510141045 68 161 0.0 3.0 0.00 0.00 0.00 72 1012.9
20260510140547 67 310 0.0 2.0 0.00 0.00 0.00 73 1013.0
20260510140057 67 58 0.0 3.0 0.00 0.00 0.00 76 1012.9
20260510135546 66 0 0.0 3.0 0.00 0.00 0.00 78 1012.8
20260510135048 66 70 0.0 3.0 0.00 0.00 0.00 76 1012.8
20260510134553 65 79 0.0 3.0 0.00 0.00 0.00 79 1012.8
20260510134042 64 313 0.0 5.0 0.00 0.00 0.00 78 1012.9
20260510133542 64 313 1.0 5.0 0.00 0.00 0.00 78 1012.9
20260510133053 64 234 0.0 3.0 0.00 0.00 0.00 82 1012.8
20260510132543 63 0 0.0 2.0 0.00 0.00 0.00 80 1012.7
20260510132043 63 0 0.0 2.0 0.00 0.00 0.00 81 1012.8
20260510131554 62 202 0.0 2.0 0.00 0.00 0.00 81 1012.8
20260510131045 61 0 0.0 2.0 0.00 0.00 0.00 82 1013.0
20260510130544 61 57 0.0 2.0 0.00 0.00 0.00 83 1012.9
20260510130057 61 0 0.0 2.0 0.00 0.00 0.00 85 1012.9
20260510125546 59 0 0.0 2.0 0.00 0.00 0.00 87 1013.0
20260510125043 59 0 0.0 2.0 0.00 0.00 0.00 86 1013.0
20260510124551 59 132 0.0 2.0 0.00 0.00 0.00 87 1012.9
20260510124047 58 0 0.0 1.0 0.00 0.00 0.00 88 1012.9
20260510123547 57 0 0.0 1.0 0.00 0.00 0.00 88 1013.0
20260510123052 57 0 0.0 2.0 0.00 0.00 0.00 89 1013.0
20260510122542 57 0 0.0 3.0 0.00 0.00 0.00 90 1012.8
20260510122044 57 91 0.0 3.0 0.00 0.00 0.00 90 1012.6
20260510121552 57 28 0.0 2.0 0.00 0.00 0.00 92 1012.7
20260510121043 56 0 0.0 2.0 0.00 0.00 0.00 93 1012.7
20260510120542 55 0 0.0 2.0 0.00 0.00 0.00 93 1012.7
20260510120053 54 28 0.0 3.0 0.00 0.00 0.00 94 1012.7
20260510115546 54 0 0.0 3.0 0.00 0.00 0.00 94 1012.5
20260510115042 54 28 0.0 2.0 0.00 0.00 0.00 95 1012.5
20260510114550 53 0 0.0 7.0 0.00 0.00 0.00 95 1012.4
20260510114046 53 0 0.0 7.0 0.00 0.00 0.00 95 1012.4
20260510113542 53 332 0.0 5.0 0.00 0.00 0.00 95 1012.6
20260510113051 52 315 0.0 3.0 0.00 0.00 0.00 95 1012.5
20260510112547 52 30 0.0 1.0 0.00 0.00 0.00 96 1012.2
20260510112051 52 0 0.0 1.0 0.00 0.00 0.00 95 1012.0
20260510111605 51 0 0.0 1.0 0.00 0.00 0.00 96 1012.0
20260510111047 51 0 0.0 1.0 0.00 0.00 0.00 95 1011.9
20260510110549 51 0 0.0 0.0 0.00 0.00 0.00 96 1011.8
20260510110052 51 0 0.0 2.0 0.00 0.00 0.00 95 1011.8
20260510105543 50 0 0.0 4.0 0.00 0.00 0.00 96 1011.7
20260510105044 50 0 0.0 4.0 0.00 0.00 0.00 96 1011.6
20260510104552 49 323 2.0 4.0 0.00 0.00 0.00 96 1011.8
20260510104042 49 323 1.0 3.0 0.00 0.00 0.00 96 1011.5
20260510103545 48 51 0.0 2.0 0.00 0.00 0.00 95 1011.2
20260510103052 47 0 0.0 2.0 0.00 0.00 0.00 95 1011.1
20260510102542 47 0 0.0 2.0 0.00 0.00 0.00 95 1011.0
20260510102042 46 0 0.0 0.0 0.00 0.00 0.00 95 1011.2
20260510101552 47 0 0.0 0.0 0.00 0.00 0.00 95 1011.2
20260510101046 48 0 0.0 0.0 0.00 0.00 0.00 95 1011.2
20260510100546 48 0 0.0 0.0 0.00 0.00 0.00 95 1011.2
20260510100055 48 0 0.0 0.0 0.00 0.00 0.00 95 1011.4
20260510095544 48 0 0.0 0.0 0.00 0.00 0.00 95 1011.2
20260510095042 48 0 0.0 1.0 0.00 0.00 0.00 95 1011.1
20260510094556 48 0 0.0 2.0 0.00 0.00 0.00 95 1011.2
20260510094044 49 0 0.0 2.0 0.00 0.00 0.00 95 1011.0
20260510093543 49 0 0.0 3.0 0.00 0.00 0.00 95 1011.1
20260510093103 50 0 0.0 3.0 0.00 0.00 0.00 95 1010.9
20260510092544 50 0 0.0 3.0 0.00 0.00 0.00 95 1011.2
20260510092043 50 0 0.0 6.0 0.00 0.00 0.00 95 1011.0
20260510091554 50 69 1.0 6.0 0.00 0.00 0.00 95 1011.1
20260510091043 50 0 0.0 6.0 0.00 0.00 0.00 95 1010.8
20260510090546 50 338 1.0 10.0 0.00 0.00 0.00 95 1011.1
20260510090117 50 0 1.0 10.0 0.00 0.00 0.00 95 1010.8
20260510085544 49 301 4.0 10.0 0.00 0.00 0.00 95 1010.9
20260510085046 48 0 4.0 10.0 0.00 0.00 0.00 95 1010.8
20260510084550 48 0 0.0 0.0 0.00 0.00 0.00 95 1010.5
20260510084043 48 0 0.0 0.0 0.00 0.00 0.00 95 1010.5
20260510083546 48 0 0.0 2.0 0.00 0.00 0.00 95 1010.4
20260510083109 48 0 0.0 2.0 0.00 0.00 0.00 95 1010.3
20260510082546 47 0 0.0 1.0 0.00 0.00 0.00 95 1010.3
20260510082044 47 0 0.0 1.0 0.00 0.00 0.00 95 1010.4
20260510081610 48 0 0.0 1.0 0.00 0.00 0.00 95 1010.4
20260510081044 48 0 0.0 1.0 0.00 0.00 0.00 95 1010.3
20260510080544 47 0 0.0 1.0 0.00 0.00 0.00 95 1010.3
20260510080056 47 0 0.0 0.0 0.00 0.00 0.00 95 1010.4
20260510075545 48 0 0.0 0.0 0.00 0.00 0.00 95 1010.2
20260510075043 48 0 0.0 0.0 0.00 0.00 0.00 95 1010.3
20260510074603 47 0 0.0 2.0 0.00 0.00 0.00 95 1010.4
20260510074049 47 0 0.0 2.0 0.00 0.00 0.00 95 1010.2
20260510073543 47 77 0.0 1.0 0.00 0.00 0.00 95 1010.2
20260510073054 47 0 0.0 0.0 0.00 0.00 0.00 95 1010.1
20260510072544 47 0 0.0 0.0 0.00 0.00 0.00 95 1009.8
20260510072044 47 0 0.0 0.0 0.00 0.00 0.00 94 1010.0
20260510071555 47 0 0.0 0.0 0.00 0.00 0.00 94 1009.8
20260510071046 47 0 0.0 0.0 0.00 0.00 0.00 94 1009.7
20260510070544 48 0 0.0 0.0 0.00 0.00 0.00 95 1009.7
20260510070049 47 0 0.0 0.0 0.00 0.00 0.00 94 1009.7
20260510065548 47 0 0.0 0.0 0.00 0.00 0.00 94 1009.7
20260510065044 47 0 0.0 0.0 0.00 0.00 0.00 94 1009.7
20260510064602 48 0 0.0 0.0 0.00 0.00 0.00 94 1009.6
20260510064043 48 0 0.0 0.0 0.00 0.00 0.00 94 1009.6
20260510063545 48 0 0.0 0.0 0.00 0.00 0.00 94 1009.7
20260510063056 48 0 0.0 0.0 0.00 0.00 0.00 94 1009.7
20260510062546 48 0 0.0 0.0 0.00 0.00 0.00 94 1009.7
20260510062044 48 0 0.0 0.0 0.00 0.00 0.00 94 1009.7
20260510061557 49 0 0.0 0.0 0.00 0.00 0.00 94 1009.9
20260510061044 49 0 0.0 0.0 0.00 0.00 0.00 94 1009.9
20260510060546 49 0 0.0 0.0 0.00 0.00 0.00 94 1009.9
20260510060054 49 0 0.0 0.0 0.00 0.00 0.00 94 1009.9
20260510055542 49 0 0.0 0.0 0.00 0.00 0.00 94 1009.9
20260510055042 49 0 0.0 0.0 0.00 0.00 0.00 94 1010.0
20260510054549 49 0 0.0 0.0 0.00 0.00 0.00 94 1009.9
20260510054042 50 0 0.0 0.0 0.00 0.00 0.00 94 1009.9
20260510053543 49 0 0.0 0.0 0.00 0.00 0.00 94 1010.0
20260510053053 49 0 0.0 0.0 0.00 0.00 0.00 94 1009.8
20260510052542 50 0 0.0 0.0 0.00 0.00 0.00 94 1009.9
20260510052042 50 0 0.0 0.0 0.00 0.00 0.00 94 1009.9
20260510051558 50 0 0.0 0.0 0.00 0.00 0.00 94 1010.0
20260510051046 50 0 0.0 0.0 0.00 0.00 0.00 94 1010.1
20260510050545 49 0 0.0 0.0 0.00 0.00 0.00 94 1010.1
20260510050054 49 0 0.0 0.0 0.00 0.00 0.00 94 1010.1
20260510045550 49 0 0.0 0.0 0.00 0.00 0.00 94 1010.1
20260510045042 49 0 0.0 0.0 0.00 0.00 0.00 94 1010.0
20260510044619 50 0 0.0 0.0 0.00 0.00 0.00 94 1009.9
20260510044042 50 0 0.0 0.0 0.00 0.00 0.00 94 1009.9
20260510043542 50 0 0.0 0.0 0.00 0.00 0.00 94 1010.1
20260510043054 50 0 0.0 0.0 0.00 0.00 0.00 93 1010.0
20260510042542 50 0 0.0 0.0 0.00 0.00 0.00 94 1010.0
20260510042046 50 0 0.0 0.0 0.00 0.00 0.00 93 1010.1
20260510041558 50 0 0.0 0.0 0.00 0.00 0.00 93 1010.1
20260510041042 50 0 0.0 0.0 0.00 0.00 0.00 93 1010.1
20260510040542 50 0 0.0 0.0 0.00 0.00 0.00 93 1010.0
20260510040056 50 0 0.0 0.0 0.00 0.00 0.00 93 1010.2
20260510035548 50 0 0.0 0.0 0.00 0.00 0.00 93 1010.2
20260510035046 50 0 0.0 0.0 0.00 0.00 0.00 93 1010.1
20260510034552 50 0 0.0 0.0 0.00 0.00 0.00 93 1010.1
20260510034046 50 0 0.0 0.0 0.00 0.00 0.00 93 1010.1
20260510033545 51 0 0.0 0.0 0.00 0.00 0.00 93 1010.1
20260510033051 51 0 0.0 0.0 0.00 0.00 0.00 93 1010.1
20260510032545 51 0 0.0 0.0 0.00 0.00 0.00 93 1010.0
20260510032045 50 0 0.0 0.0 0.00 0.00 0.00 93 1010.0
20260510031555 50 0 0.0 0.0 0.00 0.00 0.00 92 1010.0
20260510031046 51 0 0.0 0.0 0.00 0.00 0.00 93 1009.9
20260510030544 51 0 0.0 0.0 0.00 0.00 0.00 92 1009.9
20260510030051 51 0 0.0 0.0 0.00 0.00 0.00 92 1009.9
20260510025542 51 0 0.0 0.0 0.00 0.00 0.00 93 1010.0
20260510025044 51 0 0.0 0.0 0.00 0.00 0.00 92 1009.8
20260510024551 51 0 0.0 0.0 0.00 0.00 0.00 92 1009.9
20260510024042 51 0 0.0 0.0 0.00 0.00 0.00 92 1009.9
20260510023542 52 0 0.0 0.0 0.00 0.00 0.00 92 1009.8
20260510023053 52 0 0.0 0.0 0.00 0.00 0.00 91 1009.8
20260510022542 52 0 0.0 0.0 0.00 0.00 0.00 91 1009.8
20260510022045 52 0 0.0 0.0 0.00 0.00 0.00 91 1009.7
20260510021553 52 0 0.0 0.0 0.00 0.00 0.00 91 1009.9
20260510021043 52 0 0.0 0.0 0.00 0.00 0.00 90 1009.8
20260510020543 52 0 0.0 0.0 0.00 0.00 0.00 90 1009.8
20260510020053 52 0 0.0 0.0 0.00 0.00 0.00 90 1009.7
20260510015543 52 0 0.0 0.0 0.00 0.00 0.00 90 1009.7
20260510015046 52 0 0.0 0.0 0.00 0.00 0.00 90 1009.7
20260510014552 52 0 0.0 0.0 0.00 0.00 0.00 89 1009.6
20260510014043 53 0 0.0 0.0 0.00 0.00 0.00 89 1009.7
20260510013545 53 0 0.0 0.0 0.00 0.00 0.00 88 1009.6
20260510013051 53 0 0.0 0.0 0.00 0.00 0.00 88 1009.7
20260510012544 53 0 0.0 0.0 0.00 0.00 0.00 87 1009.7
20260510012045 54 0 0.0 0.0 0.00 0.00 0.00 86 1009.5
20260510011556 54 0 0.0 0.0 0.00 0.00 0.00 86 1009.4
20260510011043 54 0 0.0 0.0 0.00 0.00 0.00 86 1009.4
20260510010542 54 0 0.0 0.0 0.00 0.00 0.00 85 1009.4
20260510010121 55 0 0.0 0.0 0.00 0.00 0.00 84 1009.4
20260510005544 55 0 0.0 0.0 0.00 0.00 0.00 83 1009.2
20260510005043 56 0 0.0 2.0 0.00 0.00 0.00 82 1009.2
20260510004555 56 0 0.0 2.0 0.00 0.00 0.00 82 1009.2
20260510004043 56 0 0.0 2.0 0.00 0.00 0.00 82 1009.3
20260510003544 56 0 0.0 2.0 0.00 0.00 0.00 81 1009.2
20260510003057 57 77 0.0 2.0 0.00 0.00 0.00 81 1009.3
20260510002544 57 0 0.0 2.0 0.00 0.00 0.00 80 1009.3
20260510002043 57 77 0.0 3.0 0.00 0.00 0.00 79 1009.3
20260510001603 58 0 0.0 3.0 0.00 0.00 0.00 79 1009.3
20260510001048 58 77 1.0 5.0 0.00 0.00 0.00 77 1009.1
20260510000545 59 88 1.0 5.0 0.00 0.00 0.00 76 1009.1
20260510000057 59 64 1.0 5.0 0.00 0.00 0.00 76 1009.1
20260509235542 59 79 1.0 5.0 0.00 0.00 0.00 75 1009.1
20260509235045 60 68 2.0 7.0 0.00 0.00 0.00 75 1009.2
20260509234609 60 76 3.0 9.0 0.00 0.00 0.00 74 1009.2
20260509234042 61 89 2.0 9.0 0.00 0.00 0.00 73 1009.2
20260509233547 61 45 2.0 9.0 0.00 0.00 0.00 73 1009.2
20260509233058 61 62 4.0 9.0 0.00 0.00 0.00 72 1009.1
20260509232543 62 73 3.0 10.0 0.00 0.00 0.00 72 1009.1
20260509232043 62 97 2.0 10.0 0.00 0.00 0.00 71 1009.1
20260509231554 62 65 5.0 10.0 0.00 0.00 0.00 71 1009.0
20260509231042 63 51 3.0 9.0 0.00 0.00 0.00 71 1009.0
20260509230543 63 80 3.0 11.0 0.00 0.00 0.00 70 1009.0
20260509230058 63 72 2.0 11.0 0.00 0.00 0.00 69 1008.9
20260509225544 63 55 6.0 11.0 0.00 0.00 0.00 69 1008.9
20260509225042 64 89 5.0 10.0 0.00 0.00 0.00 69 1008.9
20260509224555 63 84 2.0 10.0 0.00 0.00 0.00 70 1009.0
20260509224046 63 80 5.0 10.0 0.00 0.00 0.00 69 1008.9
20260509223545 64 59 6.0 10.0 0.00 0.00 0.00 69 1008.9
20260509223051 64 74 3.0 11.0 0.00 0.00 0.00 70 1008.9
20260509222545 63 66 5.0 12.0 0.00 0.00 0.00 69 1009.0
20260509222045 64 80 5.0 12.0 0.00 0.00 0.00 69 1009.0
20260509221555 64 10 6.0 10.0 0.00 0.00 0.00 69 1009.0
20260509221041 63 65 5.0 10.0 0.00 0.00 0.00 69 1009.0
20260509220542 63 89 3.0 8.0 0.00 0.00 0.00 69 1009.0
20260509220107 63 45 3.0 9.0 0.00 0.00 0.00 69 1009.0
20260509215545 63 39 4.0 9.0 0.00 0.00 0.00 70 1008.9
20260509215043 63 53 4.0 9.0 0.00 0.00 0.00 69 1008.9
20260509214554 64 72 1.0 9.0 0.00 0.00 0.00 69 1008.9
20260509214045 64 79 2.0 10.0 0.00 0.00 0.00 69 1008.9
20260509213548 64 47 3.0 10.0 0.00 0.00 0.00 68 1008.7
20260509213054 64 51 4.0 9.0 0.00 0.00 0.00 68 1008.8
20260509212542 64 58 1.0 8.0 0.00 0.00 0.00 69 1008.8
20260509212042 64 66 2.0 9.0 0.00 0.00 0.00 69 1008.8
20260509211555 64 0 2.0 9.0 0.00 0.00 0.00 68 1008.9
20260509211045 64 24 4.0 9.0 0.00 0.00 0.00 67 1008.7
20260509210543 65 44 2.0 9.0 0.00 0.00 0.00 68 1008.7
20260509210051 65 81 3.0 9.0 0.00 0.00 0.00 67 1008.8
20260509205545 65 41 1.0 4.0 0.00 0.00 0.00 66 1008.8
20260509205044 66 33 1.0 6.0 0.00 0.00 0.00 65 1008.9
20260509204550 66 0 1.0 8.0 0.00 0.00 0.00 67 1008.9
20260509204045 67 30 2.0 9.0 0.00 0.00 0.00 67 1009.0
20260509203546 67 7 3.0 9.0 0.00 0.00 0.00 66 1008.9
20260509203119 66 0 1.0 6.0 0.00 0.00 0.00 66 1009.0
20260509202545 66 329 2.0 6.0 0.00 0.00 0.00 68 1009.0
20260509202044 66 2 1.0 8.0 0.00 0.00 0.00 67 1008.9
20260509201604 67 0 2.0 8.0 0.00 0.00 0.00 66 1008.9
20260509201041 67 17 3.0 9.0 0.00 0.00 0.00 66 1008.9
20260509200543 67 0 3.0 9.0 0.00 0.00 0.00 66 1008.9
20260509200059 67 32 2.0 7.0 0.00 0.00 0.00 65 1008.9
20260509195545 66 17 1.0 7.0 0.00 0.00 0.00 64 1008.7
20260509195043 66 313 2.0 7.0 0.00 0.00 0.00 66 1008.8
20260509194552 66 34 2.0 6.0 0.00 0.00 0.00 65 1009.0
20260509194043 66 332 1.0 6.0 0.00 0.00 0.00 67 1008.9
20260509193543 66 21 2.0 6.0 0.00 0.00 0.00 65 1009.0
20260509193111 67 342 2.0 8.0 0.00 0.00 0.00 65 1009.0
20260509192542 67 321 2.0 8.0 0.00 0.00 0.00 62 1009.0
20260509192045 67 59 0.0 8.0 0.00 0.00 0.00 64 1008.8
20260509191558 66 0 2.0 10.0 0.00 0.00 0.00 64 1009.0
20260509191042 66 67 2.0 10.0 0.00 0.00 0.00 66 1009.2
20260509190543 65 25 3.0 10.0 0.00 0.00 0.00 66 1009.1
20260509190051 65 25 6.0 10.0 0.00 0.00 0.00 66 1009.3
20260509185544 65 64 4.0 10.0 0.00 0.00 0.00 67 1009.4
20260509185046 65 39 5.0 9.0 0.00 0.00 0.00 67 1009.5
20260509184552 65 338 1.0 8.0 0.00 0.00 0.00 68 1009.7
20260509184042 65 329 2.0 7.0 0.00 0.00 0.00 69 1009.7
20260509183548 65 322 3.0 7.0 0.00 0.00 0.00 68 1009.7
20260509183050 65 328 3.0 9.0 0.00 0.00 0.00 69 1009.8
20260509182542 65 311 4.0 9.0 0.00 0.00 0.00 67 1009.7
20260509182042 65 309 1.0 10.0 0.00 0.00 0.00 68 1009.8
20260509181555 65 287 4.0 11.0 0.00 0.00 0.00 67 1009.8
20260509181043 65 305 6.0 11.0 0.00 0.00 0.00 66 1009.8
20260509180545 65 296 4.0 9.0 0.00 0.00 0.00 66 1010.0
20260509180054 65 301 3.0 10.0 0.00 0.00 0.00 67 1009.9
20260509175543 65 301 3.0 10.0 0.00 0.00 0.00 67 1009.9
20260509175042 65 266 3.0 13.0 0.00 0.00 0.00 67 1010.1